WOL05VK EGLL-EGCC

Flight info

Callsign WOL05VK
Flight time 0h 33m
Altitude 18000
Route ULTIB1J ULTIB T420 ELVOS ELVOS1M
Aircraft C750/M-SBDE3FGHRWXY/S

Departure

Time 2026-05-06 15:46
Airport London Heathrow Airport (EGLL)

Arrival

Time 2026-05-06 16:19
Airport Manchester Airport (EGCC)
Time Latitude Longitude Altitude Speed Heading
2026-05-06 15:19 51.46105 -0.43794 83 ft 0 kts 180°
2026-05-06 15:35 51.46121 -0.43794 84 ft 3 kts 180°
2026-05-06 15:36 51.46139 -0.43794 83 ft 3 kts 181°
2026-05-06 15:36 51.46156 -0.43793 83 ft 3 kts 181°
2026-05-06 15:36 51.46173 -0.43793 83 ft 2 kts 181°
2026-05-06 15:36 51.46189 -0.43793 83 ft 0 kts 181°
2026-05-06 15:37 51.46188 -0.43795 83 ft 0 kts 201°
2026-05-06 15:37 51.46188 -0.43805 86 ft 0 kts 266°
2026-05-06 15:39 51.46192 -0.43829 86 ft 9 kts 288°
2026-05-06 15:40 51.46229 -0.43916 83 ft 8 kts 321°
2026-05-06 15:40 51.46272 -0.43968 84 ft 8 kts 323°
2026-05-06 15:40 51.46320 -0.44034 83 ft 11 kts 306°
2026-05-06 15:40 51.46328 -0.44138 85 ft 10 kts 270°
2026-05-06 15:41 51.46329 -0.44286 85 ft 16 kts 270°
2026-05-06 15:41 51.46328 -0.44453 83 ft 14 kts 268°
2026-05-06 15:41 51.46326 -0.44615 83 ft 14 kts 262°
2026-05-06 15:41 51.46319 -0.44761 82 ft 14 kts 270°
2026-05-06 15:42 51.46318 -0.44925 82 ft 14 kts 269°
2026-05-06 15:42 51.46319 -0.45084 83 ft 15 kts 270°
2026-05-06 15:42 51.46318 -0.45240 82 ft 14 kts 270°
2026-05-06 15:42 51.46318 -0.45398 83 ft 15 kts 269°
2026-05-06 15:43 51.46317 -0.45562 83 ft 14 kts 270°
2026-05-06 15:43 51.46325 -0.45711 83 ft 14 kts 272°
2026-05-06 15:43 51.46325 -0.45902 83 ft 19 kts 269°
2026-05-06 15:43 51.46323 -0.46112 83 ft 18 kts 269°
2026-05-06 15:44 51.46322 -0.46309 82 ft 17 kts 270°
2026-05-06 15:44 51.46322 -0.46493 82 ft 16 kts 270°
2026-05-06 15:44 51.46321 -0.46664 82 ft 15 kts 269°
2026-05-06 15:44 51.46341 -0.46771 83 ft 0 kts 332°
2026-05-06 15:45 51.46378 -0.46767 82 ft 10 kts 33°
2026-05-06 15:45 51.46426 -0.46626 83 ft 19 kts 65°
2026-05-06 15:45 51.46484 -0.46486 84 ft 21 kts 90°
2026-05-06 15:46 51.46487 -0.45700 75 ft 121 kts 89°
2026-05-06 15:46 51.46485 -0.44148 380 ft 147 kts 87°
2026-05-06 15:46 51.46467 -0.42444 951 ft 161 kts 83°
2026-05-06 15:46 51.46852 -0.40572 1196 ft 194 kts 54°
2026-05-06 15:47 51.47772 -0.38810 1686 ft 219 kts 46°
2026-05-06 15:47 51.48834 -0.36867 2178 ft 243 kts 47°
2026-05-06 15:47 51.49922 -0.34765 3162 ft 245 kts 49°
2026-05-06 15:47 51.51015 -0.32654 4186 ft 248 kts 49°
2026-05-06 15:48 51.52069 -0.30556 4918 ft 243 kts 53°
2026-05-06 15:48 51.52779 -0.27979 4982 ft 256 kts 69°
2026-05-06 15:48 51.53313 -0.25216 4997 ft 262 kts 70°
2026-05-06 15:48 51.53899 -0.22388 5688 ft 261 kts 69°
2026-05-06 15:49 51.54647 -0.19681 5952 ft 267 kts 53°
2026-05-06 15:49 51.56029 -0.17821 5978 ft 258 kts 27°
2026-05-06 15:49 51.57762 -0.17087 6024 ft 257 kts
2026-05-06 15:49 51.59538 -0.17640 6025 ft 261 kts 336°
2026-05-06 15:50 51.60976 -0.19380 6034 ft 264 kts 311°
2026-05-06 15:50 51.61809 -0.21995 6051 ft 266 kts 287°
2026-05-06 15:50 51.62476 -0.24802 6893 ft 265 kts 298°
2026-05-06 15:50 51.63557 -0.27174 7890 ft 268 kts 321°
2026-05-06 15:51 51.65224 -0.28445 9064 ft 263 kts 338°
2026-05-06 15:51 51.66939 -0.29560 10036 ft 268 kts 337°
2026-05-06 15:51 51.68731 -0.30706 10470 ft 288 kts 337°
2026-05-06 15:51 51.70624 -0.32161 10619 ft 315 kts 330°
2026-05-06 15:52 51.72554 -0.34111 10852 ft 335 kts 326°
2026-05-06 15:52 51.74503 -0.36166 11630 ft 336 kts 327°
2026-05-06 15:52 51.76531 -0.38090 12405 ft 338 kts 329°
2026-05-06 15:52 51.78588 -0.39995 13002 ft 344 kts 329°
2026-05-06 15:53 51.80656 -0.42006 13691 ft 348 kts 328°
2026-05-06 15:53 51.82734 -0.44064 14298 ft 353 kts 327°
2026-05-06 15:53 51.84845 -0.46111 14944 ft 355 kts 328°
2026-05-06 15:53 51.86977 -0.48161 15576 ft 359 kts 328°
2026-05-06 15:54 51.89127 -0.50252 16251 ft 361 kts 327°
2026-05-06 15:54 51.91264 -0.52343 16848 ft 366 kts 327°
2026-05-06 15:54 51.93462 -0.54487 17519 ft 370 kts 327°
2026-05-06 15:54 51.95685 -0.56652 17998 ft 380 kts 327°
2026-05-06 15:55 51.98010 -0.58924 17999 ft 400 kts 327°
2026-05-06 15:55 52.00446 -0.61309 18008 ft 417 kts 327°
2026-05-06 15:55 52.02975 -0.63784 18003 ft 425 kts 327°
2026-05-06 15:55 52.05517 -0.66274 18004 ft 428 kts 327°
2026-05-06 15:56 52.08076 -0.68786 18007 ft 432 kts 327°
2026-05-06 15:56 52.10652 -0.71321 18006 ft 431 kts 327°
2026-05-06 15:56 52.13232 -0.73863 18006 ft 433 kts 327°
2026-05-06 15:56 52.15803 -0.76397 18005 ft 433 kts 327°
2026-05-06 15:57 52.18388 -0.78952 18005 ft 435 kts 327°
2026-05-06 15:57 52.20968 -0.81504 18000 ft 435 kts 327°
2026-05-06 15:57 52.23547 -0.84058 18001 ft 435 kts 327°
2026-05-06 15:57 52.26122 -0.86613 17999 ft 434 kts 327°
2026-05-06 15:58 52.28662 -0.89134 18007 ft 432 kts 327°
2026-05-06 15:58 52.31227 -0.91682 17995 ft 433 kts 327°
2026-05-06 15:58 52.33797 -0.94239 18002 ft 431 kts 327°
2026-05-06 15:58 52.36367 -0.96801 18001 ft 433 kts 327°
2026-05-06 15:59 52.38935 -0.99364 18018 ft 432 kts 327°
2026-05-06 15:59 52.41503 -1.01930 18017 ft 432 kts 327°
2026-05-06 15:59 52.44070 -1.04500 18011 ft 432 kts 327°
2026-05-06 15:59 52.46644 -1.07079 18008 ft 433 kts 327°
2026-05-06 16:00 52.49212 -1.09655 18008 ft 433 kts 327°
2026-05-06 16:00 52.51778 -1.12237 18007 ft 432 kts 327°
2026-05-06 16:00 52.54344 -1.14827 18009 ft 433 kts 327°
2026-05-06 16:00 52.56897 -1.17405 18006 ft 432 kts 327°
2026-05-06 16:01 52.59467 -1.19999 18006 ft 433 kts 327°
2026-05-06 16:01 52.62026 -1.22580 18003 ft 432 kts 327°
2026-05-06 16:01 52.64586 -1.25171 18001 ft 433 kts 327°
2026-05-06 16:01 52.67142 -1.27765 18001 ft 432 kts 327°
2026-05-06 16:02 52.69705 -1.30365 18003 ft 430 kts 327°
2026-05-06 16:02 52.72254 -1.32952 18005 ft 432 kts 327°
2026-05-06 16:02 52.74812 -1.35560 18033 ft 432 kts 327°
2026-05-06 16:02 52.77372 -1.38174 18030 ft 432 kts 327°
2026-05-06 16:03 52.79927 -1.40783 18030 ft 432 kts 327°
2026-05-06 16:03 52.82481 -1.43393 18028 ft 426 kts 327°
2026-05-06 16:03 52.84889 -1.45854 17659 ft 390 kts 327°
2026-05-06 16:03 52.87118 -1.48140 17017 ft 366 kts 327°
2026-05-06 16:04 52.89261 -1.50346 16024 ft 359 kts 327°
2026-05-06 16:04 52.91342 -1.52487 15868 ft 356 kts 327°
2026-05-06 16:04 52.93446 -1.54651 15470 ft 356 kts 327°
2026-05-06 16:04 52.95547 -1.56816 15042 ft 355 kts 327°
2026-05-06 16:05 52.97641 -1.58975 14613 ft 354 kts 327°
2026-05-06 16:05 52.99724 -1.61126 14186 ft 351 kts 327°
2026-05-06 16:05 53.01794 -1.63266 13750 ft 346 kts 327°
2026-05-06 16:05 53.03738 -1.65277 13303 ft 304 kts 327°
2026-05-06 16:06 53.05462 -1.67207 12933 ft 299 kts 319°
2026-05-06 16:06 53.06814 -1.69723 12598 ft 283 kts 309°
2026-05-06 16:06 53.08054 -1.72167 12272 ft 270 kts 310°
2026-05-06 16:06 53.09266 -1.74489 11951 ft 262 kts 311°
2026-05-06 16:07 53.10451 -1.76768 11635 ft 259 kts 311°
2026-05-06 16:07 53.11618 -1.79038 11314 ft 258 kts 311°
2026-05-06 16:07 53.12786 -1.81309 11012 ft 258 kts 310°
2026-05-06 16:07 53.13927 -1.83527 10702 ft 239 kts 311°
2026-05-06 16:08 53.14952 -1.85521 10412 ft 227 kts 311°
2026-05-06 16:08 53.15977 -1.87558 10126 ft 227 kts 307°
2026-05-06 16:08 53.16535 -1.90019 9752 ft 229 kts 282°
2026-05-06 16:08 53.16757 -1.92621 9589 ft 224 kts 279°
2026-05-06 16:09 53.16940 -1.95111 9320 ft 201 kts 279°
2026-05-06 16:09 53.17043 -1.96615 8946 ft 200 kts 277°
2026-05-06 16:09 53.17216 -1.98934 8706 ft 198 kts 279°
2026-05-06 16:09 53.17384 -2.01203 8400 ft 199 kts 279°
2026-05-06 16:10 53.17554 -2.03481 8191 ft 195 kts 278°
2026-05-06 16:10 53.17720 -2.05748 7841 ft 199 kts 279°
2026-05-06 16:10 53.17895 -2.08024 7607 ft 197 kts 279°
2026-05-06 16:10 53.18058 -2.10284 7355 ft 196 kts 279°
2026-05-06 16:11 53.18216 -2.12541 7101 ft 196 kts 279°
2026-05-06 16:11 53.18375 -2.14793 6862 ft 195 kts 279°
2026-05-06 16:11 53.18533 -2.17014 6616 ft 195 kts 279°
2026-05-06 16:11 53.18702 -2.19257 6360 ft 195 kts 280°
2026-05-06 16:12 53.18904 -2.21513 5966 ft 202 kts 279°
2026-05-06 16:12 53.19026 -2.23884 5601 ft 206 kts 273°
2026-05-06 16:12 53.19043 -2.26332 5005 ft 219 kts 271°
2026-05-06 16:12 53.19040 -2.28924 4540 ft 224 kts 270°
2026-05-06 16:13 53.19036 -2.31532 4113 ft 225 kts 271°
2026-05-06 16:13 53.19074 -2.34144 3719 ft 225 kts 272°
2026-05-06 16:13 53.19269 -2.36618 3640 ft 210 kts 282°
2026-05-06 16:13 53.19620 -2.39049 3149 ft 225 kts 285°
2026-05-06 16:14 53.20011 -2.41545 3018 ft 216 kts 286°
2026-05-06 16:14 53.20606 -2.43816 3005 ft 207 kts 299°
2026-05-06 16:14 53.21272 -2.45856 2993 ft 195 kts 300°
2026-05-06 16:14 53.21920 -2.47798 3000 ft 189 kts 300°
2026-05-06 16:15 53.22887 -2.49201 2838 ft 189 kts 345°
2026-05-06 16:15 53.24124 -2.48999 2872 ft 175 kts 19°
2026-05-06 16:15 53.25229 -2.48112 3001 ft 177 kts 34°
2026-05-06 16:15 53.26161 -2.46737 2983 ft 178 kts 49°
2026-05-06 16:16 53.26948 -2.45176 2752 ft 168 kts 51°
2026-05-06 16:16 53.27625 -2.43785 2525 ft 142 kts 52°
2026-05-06 16:16 53.28216 -2.42546 2334 ft 133 kts 53°
2026-05-06 16:16 53.28789 -2.41348 2162 ft 133 kts 53°
2026-05-06 16:17 53.29365 -2.40142 1973 ft 133 kts 52°
2026-05-06 16:17 53.29940 -2.38938 1811 ft 131 kts 53°
2026-05-06 16:17 53.30504 -2.37756 1624 ft 130 kts 53°
2026-05-06 16:17 53.31063 -2.36584 1451 ft 128 kts 53°
2026-05-06 16:18 53.31621 -2.35411 1265 ft 129 kts 53°
2026-05-06 16:18 53.32185 -2.34227 1080 ft 131 kts 52°
2026-05-06 16:18 53.32755 -2.33028 878 ft 133 kts 53°
2026-05-06 16:18 53.33308 -2.31834 664 ft 128 kts 53°
2026-05-06 16:19 53.33839 -2.30684 544 ft 123 kts 52°
2026-05-06 16:19 53.34372 -2.29572 422 ft 121 kts 51°
2026-05-06 16:19 53.34900 -2.28477 267 ft 118 kts 51°
2026-05-06 16:19 53.35293 -2.27660 247 ft 42 kts 51°
2026-05-06 16:20 53.35461 -2.27314 242 ft 30 kts 51°
2026-05-06 16:20 53.35588 -2.27076 236 ft 19 kts 24°
2026-05-06 16:20 53.35677 -2.27155 236 ft 14 kts 323°
2026-05-06 16:20 53.35702 -2.27187 237 ft 0 kts 320°
2026-05-06 16:22 53.35713 -2.27214 237 ft 7 kts 290°
2026-05-06 16:22 53.35696 -2.27299 238 ft 7 kts 229°
2026-05-06 16:23 53.35663 -2.27364 239 ft 7 kts 230°
2026-05-06 16:23 53.35635 -2.27420 240 ft 5 kts 230°
2026-05-06 16:23 53.35615 -2.27471 241 ft 8 kts 246°
2026-05-06 16:23 53.35638 -2.27545 242 ft 7 kts 316°
2026-05-06 16:24 53.35670 -2.27591 243 ft 5 kts 323°
2026-05-06 16:24 53.35699 -2.27620 244 ft 6 kts 334°
2026-05-06 16:24 53.35745 -2.27649 244 ft 8 kts 340°
2026-05-06 16:24 53.35789 -2.27688 244 ft 5 kts 310°
2026-05-06 16:25 53.35806 -2.27721 245 ft 3 kts 310°
2026-05-06 16:25 53.35821 -2.27749 245 ft 5 kts 313°
2026-05-06 16:25 53.35846 -2.27795 246 ft 7 kts 311°
2026-05-06 16:25 53.35886 -2.27849 246 ft 5 kts 351°
2026-05-06 16:26 53.35948 -2.27841 246 ft 11 kts
2026-05-06 16:26 53.36019 -2.27829 245 ft 10 kts
2026-05-06 16:26 53.36077 -2.27867 246 ft 11 kts 314°
2026-05-06 16:26 53.36126 -2.27947 246 ft 10 kts 314°
2026-05-06 16:27 53.36183 -2.28044 247 ft 13 kts 315°
2026-05-06 16:27 53.36263 -2.28176 248 ft 19 kts 314°
2026-05-06 16:27 53.36361 -2.28343 248 ft 20 kts 314°
2026-05-06 16:27 53.36454 -2.28500 249 ft 18 kts 315°
2026-05-06 16:28 53.36469 -2.28588 250 ft 7 kts 228°
2026-05-06 16:28 53.36416 -2.28669 250 ft 6 kts 225°
2026-05-06 16:28 53.36414 -2.28672 250 ft 0 kts 225°